Вернуться в каталог

STARLINK-34815

АктивенСвязьVLEO
NORAD 65099·PAYLOAD·🇺🇸 United States

Запущен Aug 4, 2025 с Cape Canaveral Space Force Station

Loading…

Ближайшие Пролёты (ближайшие 24 часа)

TLE

СвежийSource: CelesTrak SupGP

Эпоха: Sep 15, 2026, 02:42 UTC

1 65099C 25167X   26258.11298611 -.00041568  00000+0 -12281-2 0  2581
2 65099  53.1573 222.5715 0001274  90.6394 177.4294 15.34412945    17

Отслеживайте STARLINK-34815 в реальном времени с AllMySat

Download on the App Store